Weather History for Kansas City International, MO

Change the Weather History Date:

Sunday, June 23, 2013

  Actual Average Record
Temperature  
Mean Temperature 82 °F 76 °F  
Max Temperature 89 °F 86 °F 108 °F (1934)
Min Temperature 75 °F 66 °F 55 °F (2004)
Degree Days  
Heating Degree Days 0 0  
Month to date heating degree days 17 7  
Since 1 June heating degree days 17 7  
Since 1 July heating degree days 5202 5131  
Cooling Degree Days 17 11  
Month to date cooling degree days 187 186  
Year to date cooling degree days 292 302  
Since 1 June cooling degree days 187 186  
Growing Degree Days 32 (Base 50)    
Moisture  
Dew Point 69 °F    
Average Humidity 67    
Maximum Humidity 79    
Minimum Humidity 55    
Precipitation  
Precipitation T in 0.17 in 2.42 in (1976)
Month to date precipitation 1.86 4.06  
Year to date precipitation 16.79 17.89  
Snow  
Snow 0.00 in 0.00 in 0.00 in ()
Month to date snowfall 0.0 0.0  
Since 1 June snowfall 0.0 0.0  
Since 1 July snowfall 31.8 18.8  
Snow Depth 0.00 in    
Sea Level Pressure  
Sea Level Pressure 29.87 in    
Wind  
Wind Speed 13 mph (South)    
Max Wind Speed 33 mph    
Max Gust Speed 40 mph    
Visibility 10 miles    
Events Rain , Thunderstorm    
T = Trace of Precipitation, MM = Missing Value Source: NWS Daily Summary

Daily Weather History Graph

Daily Weather History Graph

Search for Another Location

Airport:

Trip Planner

Search our weather history database for the weather conditions in past years. The results will help you decide how hot, cold, wet, or windy it might be!

Date:

Astronomy

Jun. 23, 2013 Rise Set
Actual Time 5:53 AM CDT 8:49 PM CDT
Civil Twilight 5:20 AM CDT 9:21 PM CDT
Nautical Twilight 4:39 AM CDT 10:02 PM CDT
Astronomical Twilight 3:52 AM CDT 10:49 PM CDT
Moon 9:02 PM CDT (6/23) 6:11 AM CDT (6/23)
Length of Visible Light 16h 00m
Length of Day
14h 56m
Full, 100% of the Moon is Illuminated
Jun 23
Full
Jun 29
Last Quarter
Jul 8
New
Jul 15
First Quarter
Jul 22
Full

Hourly Weather History & Observations

Time (CDT) Temp. Heat Index Dew Point Humidity Pressure Visibility Wind Dir Wind Speed Gust Speed Precip Events Conditions
12:53 AM 79.0 °F - 68.0 °F 69% 29.88 in 10.0 mi South 16.1 mph - N/A   Clear
1:53 AM 78.1 °F - 68.0 °F 71% 29.84 in 10.0 mi South 18.4 mph - N/A   Clear
2:53 AM 78.1 °F - 66.9 °F 68% 29.86 in 10.0 mi South 16.1 mph - N/A   Clear
3:53 AM 75.9 °F - 68.0 °F 76% 29.86 in 10.0 mi South 12.7 mph - N/A   Partly Cloudy
4:53 AM 75.9 °F - 68.0 °F 76% 29.87 in 10.0 mi South 13.8 mph 21.9 mph N/A   Scattered Clouds
5:53 AM 75.0 °F - 68.0 °F 79% 29.86 in 10.0 mi South 15.0 mph 23.0 mph N/A   Partly Cloudy
6:53 AM 75.9 °F - 68.0 °F 76% 29.84 in 10.0 mi South 20.7 mph 26.5 mph N/A   Overcast
7:53 AM 78.1 °F - 69.1 °F 74% 29.86 in 10.0 mi South 17.3 mph - N/A   Mostly Cloudy
8:53 AM 79.0 °F - 69.1 °F 72% 29.89 in 10.0 mi SSW 15.0 mph 26.5 mph N/A   Overcast
9:53 AM 79.0 °F - 70.0 °F 74% 29.93 in 10.0 mi West 5.8 mph - N/A   Overcast
10:53 AM 79.0 °F - 70.0 °F 74% 29.94 in 9.0 mi NW 3.5 mph - N/A   Overcast
11:53 AM 78.1 °F - 70.0 °F 76% 29.95 in 9.0 mi ENE 6.9 mph - N/A   Overcast
12:36 PM 78.8 °F - 69.8 °F 74% 29.97 in 8.0 mi East 11.5 mph - 0.00 in Rain , Thunderstorm Light Thunderstorms and Rain
12:53 PM 78.1 °F - 70.0 °F 76% 29.95 in 8.0 mi NNE 9.2 mph - 0.00 in Rain , Thunderstorm Light Thunderstorms and Rain
1:39 PM 78.8 °F - 69.8 °F 74% 29.93 in 10.0 mi East 13.8 mph - 0.00 in   Overcast
1:53 PM 80.1 °F 83.2 °F 70.0 °F 71% 29.89 in 10.0 mi ESE 15.0 mph - 0.00 in   Overcast
2:53 PM 81.0 °F 85.2 °F 72.0 °F 74% 29.79 in 10.0 mi South 29.9 mph 40.3 mph N/A   Overcast
3:53 PM 84.0 °F 89.0 °F 71.1 °F 65% 29.78 in 10.0 mi SE 11.5 mph - N/A   Overcast
4:20 PM 84.2 °F 89.6 °F 71.6 °F 66% 29.88 in 10.0 mi SW 8.1 mph - N/A   Mostly Cloudy
4:53 PM 88.0 °F 94.7 °F 72.0 °F 59% 29.85 in 10.0 mi Variable 3.5 mph - N/A   Mostly Cloudy
5:53 PM 87.1 °F 93.6 °F 72.0 °F 61% 29.84 in 10.0 mi South 5.8 mph - N/A   Mostly Cloudy
6:53 PM 87.1 °F 92.0 °F 70.0 °F 57% 29.81 in 10.0 mi SSW 11.5 mph - N/A   Mostly Cloudy
7:53 PM 84.0 °F 87.8 °F 69.1 °F 61% 29.84 in 10.0 mi SSW 10.4 mph - N/A   Scattered Clouds
8:53 PM 79.0 °F - 68.0 °F 69% 29.86 in 10.0 mi South 9.2 mph - N/A   Mostly Cloudy
9:53 PM 77.0 °F - 68.0 °F 74% 29.89 in 10.0 mi South 9.2 mph - N/A   Scattered Clouds
10:53 PM 80.1 °F 82.7 °F 68.0 °F 67% 29.90 in 10.0 mi South 15.0 mph - N/A   Scattered Clouds
11:53 PM 81.0 °F 83.0 °F 66.0 °F 60% 29.90 in 10.0 mi SSW 16.1 mph 27.6 mph N/A   Partly Cloudy